Tracking 18793 objects as of 25-September-2017
HD Live streaming from Space Station
objects crossing your sky now

AVUM DEB(ADAPTOR)

Track AVUM DEB(ADAPTOR) now!
10-day predictions


NORAD ID: 42902
Int'l Code: 2017-044C
Perigee: 441.7 km
Apogee: 455.3 km
Inclination: 97.2 °
Period: 93.4 minutes
Semi major axis: 6819 km
RCS: Unknown
Launch date: August 2, 2017
Source: European Space Agency (ESA)
Launch site: FRENCH GUIANA (FRGUI)

Note: This is SATELLITE DEBRIS
aabbcc
Your satellite tracking list
Your tracking list is empty





NASA's NSSDC Master Catalog

Two Line Element Set (TLE):
1 42902U 17044C   17267.72423160 +.00010652 +00000-0 +25472-3 0  9998
2 42902 097.2116 341.3276 0009955 137.8672 222.3432 15.41606139008263
Source of the keplerian elements: AFSPC